Location: Milton Keynes
(52.0316°N, 0.7531°W)
Time: 13:57:49
(UTC+01:00)

N. Korean satellite - Pass Details

Date: 27 January 2019
Orbit: 457 x 508 km, 97.2° (Epoch: 19 April)

Event Time Altitude Azimuth Distance (km) Brightness Sun altitude
Rises 06:39:49 0° 11° (N) 2,621 10.2 -10.9°
Reaches altitude 10° 06:41:56 10° 9° (N) 1,726 9.3 -10.6°
Maximum altitude 06:45:38 70° 286° (WNW) 536 6.5 -10.0°
Drops below altitude 10° 06:49:15 10° 203° (SSW) 1,685 9.3 -9.5°
Sets 06:51:18 0° 201° (SSW) 2,552 10.2 -9.2°
